Find OneWeb SL0414

NORAD ID: 50491 Int'l Des: 2021-132 Owner: ONEWEBN Country: UK Constellation: oneweb operational
LEOCIRCULARPOLARONEWEB_TYPE

实时位置

正在加载3D地球...

关于 OneWeb SL0414

正在加载描述...

即将过境

Passes for default location (London). Set your location on the main map for personalized predictions.

高度历史

Loading altitude history...

两行轨道根数

1 50491U 21132Y 26105.11705086 .00000070 00000-0 14370-3 0 9995
2 50491 87.9226 347.9770 0001787 86.6594 273.4742 13.18684384213318
Epoch: Apr 15, 2026 • Age: 8 hours

当前状态

高度 1199.7 km
速度 7.25 km/s
星下点 -24.93°S, 158.32°E
发射日期 Dec 27, 2021
运行时间 4.2 years
类型 internet

技术详情

分类 Payload
质量 148.00 kg
干质量 140.00 kg
总质量 148.00 kg
长度 1.30 m
直径 1.00 m
跨度 5.00 m
形状 Trapezoid+2 pan
制造商 ONEWUS
平台类型 ARROW
阶段状态 In Orbit
所有者/国家 ONEWEBN/UK

Most Searched